{"data":{"norad_id":58251,"epoch":"2026-05-25T04:35:49.716096Z","epoch_age_seconds":48642,"freshness":"FRESH","line1":"1 58251U 23171X   26145.19154764  .00001922  00000+0  79349-4 0  9999","line2":"2 58251  43.0015 213.1718 0001673 274.2252  85.8408 15.27580009141433","mean_motion":15.27580009,"eccentricity":0.0001673,"inclination_deg":43.0015,"raan_deg":213.1718,"arg_perigee_deg":274.2252,"mean_anomaly_deg":85.8408,"bstar":7.9349e-5,"rev_number":14143,"period_min":94.266748158263,"perigee_km":481.90119266106,"apogee_km":484.19694551977,"semimajor_km":6861.1860690904,"source":"CELESTRAK","updated_at":"2026-05-25T13:38:18.583858Z"}}